Regional Weather Roundup
Issued by NWS Charleston, WV

Home | Current Version | Previous Version | Text Only | Print | Product List | Glossary On
Versions: 1 2 3 4 5 6 7 8 9 10 11 12 13 14 15 16 17 18 19 20 21 22 23 24 25 26 27 28 29 30 31 32 33 34 35 36 37 38 39 40 41 42 43 44 45 46 47 48 49 50
718
ASUS41 KRLX 180710
RWRRLX
Regional Weather Roundup
National Weather Service Charleston WV
300 AM EDT SUN AUG 18 2019

Note: "fair" indicates few or no clouds below 12,000 feet with no
significant weather and/or obstructions to visibility.

WVZ003-180800-
Northern Panhandle of West Virginia

CITY           SKY/WX    TMP DP  RH WIND       PRES   REMARKS
WHEELING       FAIR      72  68  87 CALM      30.00F
$$

WVZ009-180800-
Northwest West Virginia

CITY           SKY/WX    TMP DP  RH WIND       PRES   REMARKS
PARKERSBURG    FAIR      70  69  97 CALM      30.01S FOG
$$

WVZ006-180800-
Western West Virginia

CITY           SKY/WX    TMP DP  RH WIND       PRES   REMARKS
HUNTINGTON     FAIR      71  69  93 CALM      29.97F
$$

WVZ015-180800-
West Central West Virginia

CITY           SKY/WX    TMP DP  RH WIND       PRES   REMARKS
CHARLESTON     FAIR      68  66  93 CALM      29.99F
$$

WVZ022-031-180800-
North Central West Virginia

CITY           SKY/WX    TMP DP  RH WIND       PRES   REMARKS
MORGANTOWN     FAIR      70  67  90 CALM      30.02F
CLARKSBURG     FAIR      69  66  90 CALM      30.01F FOG
BUCKHANNON     FAIR      68  68 100 CALM      30.03F
$$

WVZ025-035-042-045-180800-
Southern West Virginia

CITY           SKY/WX    TMP DP  RH WIND       PRES   REMARKS
BECKLEY        NOT AVBL
LOGAN          FAIR      73  66  78 CALM      30.03S
PINEVILLE      FAIR      66  64  96 MISG      30.10S
BLUEFIELD      FAIR      68  61  78 W5        30.11F
LEWISBURG      FAIR      63  62  96 NE3       30.09F
$$

WVZ047-180800-
Northern Mountains of West Virginia

CITY           SKY/WX    TMP DP  RH WIND       PRES   REMARKS
ELKINS         FAIR      66  63  90 CALM      30.08S
$$

WVZ052-180800-
Eastern Panhandle of West Virginia

CITY           SKY/WX    TMP DP  RH WIND       PRES   REMARKS
MARTINSBURG    FAIR      73  68  84 CALM      29.96S
PETERSBURG     FAIR      66  66  99 CALM      30.02S
$$

Southeast Ohio/Northeast Kentucky

CITY           SKY/WX    TMP DP  RH WIND       PRES   REMARKS
ATHENS         FAIR      69  69 100 CALM      29.97F
ASHLAND        FAIR      72  72 100 CALM      29.97F FOG
$$




USA.gov is the U.S. government's official web portal to all federal, state and local government web resources and services.